NOAA 16 DEB, 41503

Orbit data source: Space-Track

NOAA 16 DEB, 41503 is space debris in SSO originally from a launch on Thu, 21 Sep 2000 UTC launched from the Air Force Western Test Range (AFWTR). Debris objects in space refer to the collection of defunct objects orbiting the Earth. Examples of debris include non-operational satellites, rocket bodies, and fragments generated from explosions, collisions, or faulty payload assembly.

Loading next visibility...
Identifier
41503, 2000-055MB
Orbit
SSO
Country
Flag of USUS
Related business
Manufacturer
Unknown
Mission
Spacecraft
Bus & Motor
Unknown
Mass
Unknown
Launch date (UTC)
2000-09-21 (25 years ago)
Launch vehicle
Unknown
Launch site
Air Force Western Test Range (AFWTR)
Object type
Payload
Rocket body
Debris
Shape & HBR
Unknown
Radar Cross Section
Small (<0.1 m²)

Expand to show TLE details & history
Last TLE update: 1 week ago

TLE from 1 week ago
0 NOAA 16 DEB
1 41503U 00055MB  25252.11369269  .00011411  00000-0  27483-2 0  9990
2 41503  98.7709  18.7962 0026002 202.2315 157.7755 14.53218062495000
Epoch: 2025-09-09T02:43Z
TLE epoch observation values (Epoch: 2025-09-09T02:43:43.048Z)
Latitude
0.00005°
Longitude
-10.54229°
Altitude
735.199 km
Speed
7.478 km/s
True Right ascension
01h 15m 11s
True Declination
0° 00' 00"
Sunlit
Object was in full shadow at epoch
Visualization orbit readout
Latitude
Unknown
Longitude
Unknown
Altitude
Unknown
Speed
Unknown
Apparent Right ascension
Unknown
Apparent Declination
Unknown
Sunlit
N/A
Visualization observer readout
Local Sidereal Time
12:27:10
Azimuth
Unknown
Elevation
Unknown
Doppler factor
Unknown
Orbital elements
Apogee altitude
730.711 km
Perigee altitude
693.838 km
Semi-major axis
7,090.412 km
Eccentricity
0.0026
Inclination
98.7709°
RAAN
18.7962°
Arg. of periapsis
202.2315°
True anomaly
157.88786°
Mean anomaly
157.7755°
Eccentric anomaly
157.83171°
Mean motion
3.63526 °/min
Orbital period
99.03 mins
BSTAR
0.0027483
Loading maneuver chart data...
Computing Atmospheric mass density...
Loading historical data...
Loading historical data...
Loading historical data...
Loading historical data...
Loading historical data...
Loading historical data...
Loading historical data...

Documentation

Showing up to 5 results
|